Time,TemperatureF,DewpointF,PressureIn,WindDirection,WindDirectionDegrees,WindSpeedMPH,WindSpeedGustMPH,Humidity,HourlyPrecipIn,Conditions,Clouds,dailyrainin,SoftwareType,DateUTC
2013-04-11 09:31:00,48.4,44.1,30.33,West,277,1.0,2.0,85,0.00,,,0.02,Wunderground v.1.15,2013-04-11 16:31:00,
2013-04-11 09:37:00,48.8,44.2,30.33,SSW,209,2.0,5.0,84,0.00,,,0.02,Wunderground v.1.15,2013-04-11 16:37:00,
2013-04-11 09:43:00,49.1,44.2,30.33,WSW,257,1.0,2.0,83,0.00,,,0.02,Wunderground v.1.15,2013-04-11 16:43:00,
2013-04-11 09:49:00,49.6,44.6,30.33,WSW,238,1.0,3.0,83,0.00,,,0.02,Wunderground v.1.15,2013-04-11 16:49:00,
2013-04-11 09:55:00,49.9,44.0,30.33,SW,221,2.0,2.0,80,0.00,,,0.02,Wunderground v.1.15,2013-04-11 16:55:00,
2013-04-11 10:00:00,50.2,44.9,30.33,SSW,201,2.0,2.0,82,0.00,,,0.02,Wunderground v.1.15,2013-04-11 17:00:00,
2013-04-11 10:05:00,50.4,44.8,30.33,NW,318,2.0,5.0,81,0.00,,,0.02,Wunderground v.1.15,2013-04-11 17:05:00,
2013-04-11 10:11:00,50.2,44.6,30.33,NW,306,4.0,4.0,81,0.00,,,0.02,Wunderground v.1.15,2013-04-11 17:11:00,
2013-04-11 10:16:00,49.9,44.6,30.34,SW,223,4.0,5.0,82,0.00,,,0.02,Wunderground v.1.15,2013-04-11 17:16:00,
2013-04-11 10:22:00,50.0,45.0,30.34,West,278,2.0,4.0,83,0.00,,,0.02,Wunderground v.1.15,2013-04-11 17:22:00,
2013-04-11 10:28:00,50.6,45.6,30.34,WSW,238,2.0,4.0,83,0.00,,,0.02,Wunderground v.1.15,2013-04-11 17:28:00,
2013-04-11 10:34:00,51.3,45.7,30.33,SW,224,2.0,6.0,81,0.00,,,0.02,Wunderground v.1.15,2013-04-11 17:34:00,
2013-04-11 10:39:00,51.9,46.3,30.33,WSW,244,2.0,6.0,81,0.00,,,0.02,Wunderground v.1.15,2013-04-11 17:39:00,
2013-04-11 10:45:00,52.4,45.4,30.34,West,259,2.0,6.0,77,0.00,,,0.02,Wunderground v.1.15,2013-04-11 17:45:00,
2013-04-11 10:50:00,52.7,45.3,30.34,SSW,208,3.0,6.0,76,0.00,,,0.02,Wunderground v.1.15,2013-04-11 17:50:00,
2013-04-11 10:56:00,52.9,45.2,30.34,WSW,252,4.0,10.0,75,0.00,,,0.02,Wunderground v.1.15,2013-04-11 17:56:00,
2013-04-11 11:02:00,53.2,45.1,30.34,WNW,295,4.0,6.0,74,0.00,,,0.02,Wunderground v.1.15,2013-04-11 18:02:00,
2013-04-11 11:07:00,53.4,45.7,30.34,SW,229,3.0,7.0,75,0.00,,,0.02,Wunderground v.1.15,2013-04-11 18:07:00,
2013-04-11 11:12:00,54.1,46.0,30.34,SW,228,4.0,6.0,74,0.00,,,0.02,Wunderground v.1.15,2013-04-11 18:12:00,
2013-04-11 11:18:00,55.2,45.2,30.34,WSW,250,5.0,6.0,69,0.00,,,0.02,Wunderground v.1.15,2013-04-11 18:18:00,
2013-04-11 11:24:00,55.2,46.0,30.34,WNW,302,4.0,6.0,71,0.00,,,0.02,Wunderground v.1.15,2013-04-11 18:24:00,
2013-04-11 11:29:00,54.4,45.9,30.34,SW,226,5.0,7.0,73,0.00,,,0.02,Wunderground v.1.15,2013-04-11 18:29:00,
2013-04-11 11:35:00,53.0,46.7,30.34,WNW,287,4.0,6.0,79,0.00,,,0.02,Wunderground v.1.15,2013-04-11 18:35:00,
2013-04-11 11:40:00,53.2,46.9,30.34,SSW,209,4.0,4.0,79,0.00,,,0.02,Wunderground v.1.15,2013-04-11 18:40:00,
2013-04-11 11:45:00,54.0,46.3,30.34,West,265,3.0,6.0,75,0.00,,,0.02,Wunderground v.1.15,2013-04-11 18:45:00,
2013-04-11 11:51:00,55.5,46.2,30.34,SW,229,5.0,10.0,71,0.00,,,0.02,Wunderground v.1.15,2013-04-11 18:51:00,
2013-04-11 11:56:00,56.2,45.8,30.34,SW,223,6.0,10.0,68,0.00,,,0.02,Wunderground v.1.15,2013-04-11 18:56:00,
2013-04-11 12:02:00,56.2,45.8,30.33,WSW,250,5.0,6.0,68,0.00,,,0.02,Wunderground v.1.15,2013-04-11 19:02:00,
2013-04-11 12:07:00,56.4,46.0,30.33,SW,226,5.0,6.0,68,0.00,,,0.02,Wunderground v.1.15,2013-04-11 19:07:00,
2013-04-11 12:12:00,56.8,45.6,30.33,SW,217,5.0,7.0,66,0.00,,,0.02,Wunderground v.1.15,2013-04-11 19:12:00,
2013-04-11 12:18:00,57.3,45.6,30.33,WSW,247,5.0,7.0,65,0.00,,,0.02,Wunderground v.1.15,2013-04-11 19:18:00,
2013-04-11 12:24:00,57.2,45.1,30.32,WSW,249,3.0,5.0,64,0.00,,,0.02,Wunderground v.1.15,2013-04-11 19:24:00,
2013-04-11 12:30:00,57.0,45.3,30.32,SW,215,2.0,2.0,65,0.00,,,0.02,Wunderground v.1.15,2013-04-11 19:30:00,
2013-04-11 12:36:00,56.8,45.2,30.32,NW,304,3.0,6.0,65,0.00,,,0.02,Wunderground v.1.15,2013-04-11 19:36:00,
2013-04-11 12:42:00,57.5,45.0,30.32,WSW,242,3.0,3.0,63,0.00,,,0.02,Wunderground v.1.15,2013-04-11 19:42:00,
2013-04-11 12:48:00,57.5,44.1,30.32,NW,317,3.0,5.0,61,0.00,,,0.02,Wunderground v.1.15,2013-04-11 19:48:00,
2013-04-11 12:53:00,57.1,44.6,30.32,WNW,294,3.0,10.0,63,0.00,,,0.02,Wunderground v.1.15,2013-04-11 19:53:00,
2013-04-11 12:59:00,56.7,45.5,30.32,NW,306,4.0,10.0,66,0.00,,,0.02,Wunderground v.1.15,2013-04-11 19:59:00,
2013-04-11 13:04:00,56.1,46.8,30.32,NW,320,5.0,17.0,71,0.00,,,0.03,Wunderground v.1.15,2013-04-11 20:04:00,
2013-04-11 13:09:00,54.3,46.2,30.32,NNW,333,6.0,17.0,74,0.12,,,0.04,Wunderground v.1.15,2013-04-11 20:09:00,
2013-04-11 13:15:00,52.7,46.4,30.32,NW,312,5.0,17.0,79,0.13,,,0.05,Wunderground v.1.15,2013-04-11 20:15:00,
2013-04-11 13:21:00,52.3,47.0,30.32,WSW,254,2.0,17.0,82,0.08,,,0.05,Wunderground v.1.15,2013-04-11 20:21:00,
2013-04-11 13:27:00,52.2,46.9,30.32,WSW,256,2.0,17.0,82,0.04,,,0.05,Wunderground v.1.15,2013-04-11 20:27:00,
2013-04-11 13:33:00,52.2,46.2,30.32,West,273,3.0,17.0,80,0.00,,,0.05,Wunderground v.1.15,2013-04-11 20:33:00,
2013-04-11 13:38:00,52.1,46.4,30.31,WSW,257,3.0,17.0,81,0.00,,,0.05,Wunderground v.1.15,2013-04-11 20:38:00,
2013-04-11 13:44:00,52.3,47.6,30.31,WNW,288,2.0,17.0,84,0.00,,,0.05,Wunderground v.1.15,2013-04-11 20:44:00,
2013-04-11 13:49:00,52.8,48.1,30.31,SW,236,2.0,17.0,84,0.00,,,0.05,Wunderground v.1.15,2013-04-11 20:49:00,
2013-04-11 13:55:00,53.2,48.2,30.30,WSW,239,4.0,17.0,83,0.00,,,0.05,Wunderground v.1.15,2013-04-11 20:55:00,
2013-04-11 14:01:00,54.0,49.6,30.30,WSW,242,4.0,9.0,85,0.00,,,0.05,Wunderground v.1.15,2013-04-11 21:01:00,
2013-04-11 14:07:00,55.1,49.0,30.30,SW,217,5.0,17.0,80,0.00,,,0.05,Wunderground v.1.15,2013-04-11 21:07:00,
2013-04-11 14:13:00,56.1,48.6,30.30,SW,216,4.0,17.0,76,0.00,,,0.05,Wunderground v.1.15,2013-04-11 21:13:00,
2013-04-11 14:19:00,57.0,49.5,30.30,SW,226,3.0,17.0,76,0.00,,,0.05,Wunderground v.1.15,2013-04-11 21:19:00,
2013-04-11 14:24:00,57.3,48.0,30.29,NW,309,3.0,17.0,71,0.00,,,0.05,Wunderground v.1.15,2013-04-11 21:24:00,
2013-04-11 14:30:00,57.3,46.8,30.30,SW,214,3.0,17.0,68,0.00,,,0.05,Wunderground v.1.15,2013-04-11 21:30:00,
2013-04-11 14:35:00,57.2,46.7,30.29,SW,219,4.0,17.0,68,0.00,,,0.05,Wunderground v.1.15,2013-04-11 21:35:00,
2013-04-11 14:41:00,57.1,45.8,30.29,West,262,4.0,6.0,66,0.00,,,0.05,Wunderground v.1.15,2013-04-11 21:41:00,
2013-04-11 14:46:00,56.9,46.1,30.29,WNW,299,4.0,17.0,67,0.00,,,0.05,Wunderground v.1.15,2013-04-11 21:46:00,
2013-04-11 14:51:00,57.3,44.0,30.29,West,259,5.0,17.0,61,0.00,,,0.05,Wunderground v.1.15,2013-04-11 21:51:00,
2013-04-11 14:57:00,58.1,45.6,30.29,SW,220,6.0,17.0,63,0.00,,,0.05,Wunderground v.1.15,2013-04-11 21:57:00,
2013-04-11 15:03:00,58.6,45.6,30.29,West,266,7.0,17.0,62,0.00,,,0.05,Wunderground v.1.15,2013-04-11 22:03:00,
2013-04-11 15:09:00,58.5,45.9,30.29,SW,232,6.0,17.0,63,0.00,,,0.05,Wunderground v.1.15,2013-04-11 22:09:00,
2013-04-11 15:15:00,58.6,44.8,30.28,West,279,5.0,17.0,60,0.00,,,0.05,Wunderground v.1.15,2013-04-11 22:15:00,
2013-04-11 15:20:00,58.4,44.1,30.28,SSW,213,5.0,5.0,59,0.00,,,0.05,Wunderground v.1.15,2013-04-11 22:20:00,
2013-04-11 15:25:00,58.6,45.6,30.28,WSW,252,5.0,17.0,62,0.00,,,0.05,Wunderground v.1.15,2013-04-11 22:25:00,
2013-04-11 15:30:00,58.9,44.1,30.28,WNW,302,6.0,17.0,58,0.00,,,0.05,Wunderground v.1.15,2013-04-11 22:30:00,
2013-04-11 15:36:00,58.9,45.9,30.28,WNW,300,6.0,17.0,62,0.00,,,0.05,Wunderground v.1.15,2013-04-11 22:36:00,
2013-04-11 15:41:00,58.1,43.8,30.28,WNW,302,8.0,8.0,59,0.00,,,0.05,Wunderground v.1.15,2013-04-11 22:41:00,
2013-04-11 15:47:00,57.3,43.1,30.27,NW,313,7.0,17.0,59,0.00,,,0.05,Wunderground v.1.15,2013-04-11 22:47:00,
2013-04-11 15:52:00,57.1,42.9,30.27,SW,233,5.0,17.0,59,0.00,,,0.05,Wunderground v.1.15,2013-04-11 22:52:00,
2013-04-11 15:58:00,57.7,45.6,30.27,NW,314,4.0,17.0,64,0.00,,,0.05,Wunderground v.1.15,2013-04-11 22:58:00,
2013-04-11 16:03:00,56.8,46.0,30.27,NW,311,8.0,17.0,67,0.00,,,0.05,Wunderground v.1.15,2013-04-11 23:03:00,
2013-04-11 16:09:00,54.9,46.0,30.27,NW,304,9.0,17.0,72,0.00,,,0.06,Wunderground v.1.15,2013-04-11 23:09:00,
2013-04-11 16:15:00,54.4,45.6,30.27,West,275,8.0,17.0,72,0.00,,,0.06,Wunderground v.1.15,2013-04-11 23:15:00,
2013-04-11 16:21:00,54.7,44.7,30.27,SW,223,7.0,17.0,69,0.00,,,0.06,Wunderground v.1.15,2013-04-11 23:21:00,
2013-04-11 16:27:00,55.5,44.3,30.26,West,277,4.0,17.0,66,0.00,,,0.06,Wunderground v.1.15,2013-04-11 23:27:00,
2013-04-11 16:32:00,56.0,43.6,30.26,NW,312,4.0,17.0,63,0.00,,,0.06,Wunderground v.1.15,2013-04-11 23:32:00,
2013-04-11 16:38:00,56.0,42.3,30.26,SW,227,3.0,17.0,60,0.00,,,0.06,Wunderground v.1.15,2013-04-11 23:38:00,
2013-04-11 16:44:00,55.6,41.5,30.25,WNW,288,3.0,17.0,59,0.00,,,0.06,Wunderground v.1.15,2013-04-11 23:44:00,
2013-04-11 16:49:00,55.4,41.7,30.25,West,267,3.0,17.0,60,0.00,,,0.06,Wunderground v.1.15,2013-04-11 23:49:00,
2013-04-11 16:55:00,56.1,41.5,30.26,WSW,244,3.0,17.0,58,0.00,,,0.06,Wunderground v.1.15,2013-04-11 23:55:00,
2013-04-11 17:00:00,56.7,41.6,30.26,WNW,300,4.0,17.0,57,0.00,,,0.06,Wunderground v.1.15,2013-04-12 00:00:00,
2013-04-11 17:06:00,57.2,40.7,30.25,WNW,285,5.0,17.0,54,0.00,,,0.06,Wunderground v.1.15,2013-04-12 00:06:00,
2013-04-11 17:11:00,57.6,41.1,30.25,SW,232,4.0,17.0,54,0.00,,,0.06,Wunderground v.1.15,2013-04-12 00:11:00,
2013-04-11 17:16:00,57.7,41.2,30.25,SW,215,4.0,17.0,54,0.00,,,0.06,Wunderground v.1.15,2013-04-12 00:16:00,
2013-04-11 17:22:00,58.1,41.0,30.25,SSW,213,3.0,17.0,53,0.00,,,0.06,Wunderground v.1.15,2013-04-12 00:22:00,
2013-04-11 17:28:00,58.7,41.1,30.25,West,279,3.0,17.0,52,0.00,,,0.06,Wunderground v.1.15,2013-04-12 00:28:00,
2013-04-11 17:33:00,58.9,41.8,30.24,SW,236,4.0,17.0,53,0.00,,,0.06,Wunderground v.1.15,2013-04-12 00:33:00,
2013-04-11 17:39:00,58.7,41.1,30.25,West,265,6.0,17.0,52,0.00,,,0.06,Wunderground v.1.15,2013-04-12 00:39:00,
2013-04-11 17:44:00,58.6,40.5,30.24,SW,231,5.0,17.0,51,0.00,,,0.06,Wunderground v.1.15,2013-04-12 00:44:00,
2013-04-11 17:50:00,58.4,40.8,30.24,West,259,5.0,17.0,52,0.00,,,0.06,Wunderground v.1.15,2013-04-12 00:50:00,
2013-04-11 17:56:00,58.3,40.2,30.25,WNW,294,4.0,17.0,51,0.00,,,0.06,Wunderground v.1.15,2013-04-12 00:56:00,
2013-04-11 18:02:00,58.0,40.5,30.24,WNW,285,4.0,17.0,52,0.00,,,0.06,Wunderground v.1.15,2013-04-12 01:02:00,
2013-04-11 18:08:00,57.6,40.6,30.24,WNW,297,4.0,17.0,53,0.00,,,0.06,Wunderground v.1.15,2013-04-12 01:08:00,
2013-04-11 18:13:00,57.2,39.7,30.23,West,260,5.0,6.0,52,0.00,,,0.06,Wunderground v.1.15,2013-04-12 01:13:00,
2013-04-11 18:19:00,56.9,39.9,30.24,West,269,3.0,6.0,53,0.00,,,0.06,Wunderground v.1.15,2013-04-12 01:19:00,
2013-04-11 18:24:00,56.5,39.6,30.23,West,281,3.0,6.0,53,0.00,,,0.06,Wunderground v.1.15,2013-04-12 01:24:00,
2013-04-11 18:30:00,56.0,38.6,30.23,WNW,293,3.0,3.0,52,0.00,,,0.06,Wunderground v.1.15,2013-04-12 01:30:00,
2013-04-11 18:36:00,55.6,39.2,30.23,West,271,3.0,7.0,54,0.00,,,0.06,Wunderground v.1.15,2013-04-12 01:36:00,
2013-04-11 18:41:00,54.9,38.6,30.23,WNW,289,3.0,9.0,54,0.00,,,0.06,Wunderground v.1.15,2013-04-12 01:41:00,
2013-04-11 18:46:00,54.3,39.4,30.23,WSW,254,4.0,9.0,57,0.00,,,0.06,Wunderground v.1.15,2013-04-12 01:46:00,
2013-04-11 18:52:00,53.5,38.6,30.23,NW,307,4.0,9.0,57,0.00,,,0.06,Wunderground v.1.15,2013-04-12 01:52:00,
2013-04-11 18:57:00,52.8,38.4,30.23,WSW,244,4.0,9.0,58,0.00,,,0.06,Wunderground v.1.15,2013-04-12 01:57:00,
2013-04-11 19:03:00,52.2,38.3,30.23,West,277,3.0,15.0,59,0.00,,,0.06,Wunderground v.1.15,2013-04-12 02:03:00,
2013-04-11 19:09:00,51.8,38.8,30.23,WSW,238,2.0,15.0,61,0.00,,,0.06,Wunderground v.1.15,2013-04-12 02:09:00,
2013-04-11 19:15:00,51.3,38.3,30.23,SW,225,2.0,15.0,61,0.00,,,0.06,Wunderground v.1.15,2013-04-12 02:15:00,
2013-04-11 19:20:00,50.9,37.9,30.23,NW,310,3.0,3.0,61,0.00,,,0.06,Wunderground v.1.15,2013-04-12 02:20:00,
2013-04-11 19:26:00,50.5,38.4,30.23,WNW,288,3.0,15.0,63,0.00,,,0.06,Wunderground v.1.15,2013-04-12 02:26:00,
2013-04-11 19:32:00,50.2,38.5,30.23,SW,232,2.0,15.0,64,0.00,,,0.06,Wunderground v.1.15,2013-04-12 02:32:00,
2013-04-11 19:37:00,49.8,38.1,30.23,WNW,299,2.0,15.0,64,0.00,,,0.06,Wunderground v.1.15,2013-04-12 02:37:00,
2013-04-11 19:43:00,49.5,38.2,30.23,West,267,3.0,15.0,65,0.00,,,0.06,Wunderground v.1.15,2013-04-12 02:43:00,
2013-04-11 19:49:00,49.1,38.2,30.23,West,266,2.0,15.0,66,0.00,,,0.06,Wunderground v.1.15,2013-04-12 02:49:00,
2013-04-11 19:54:00,48.8,37.9,30.23,NW,309,2.0,15.0,66,0.00,,,0.06,Wunderground v.1.15,2013-04-12 02:54:00,
2013-04-11 19:59:00,48.4,37.9,30.23,SW,221,1.0,15.0,67,0.00,,,0.06,Wunderground v.1.15,2013-04-12 02:59:00,
2013-04-11 20:05:00,48.0,37.6,30.23,West,279,1.0,15.0,67,0.00,,,0.06,Wunderground v.1.15,2013-04-12 03:05:00,
2013-04-11 20:10:00,47.7,38.0,30.23,SW,227,1.0,1.0,69,0.00,,,0.06,Wunderground v.1.15,2013-04-12 03:10:00,
2013-04-11 20:16:00,47.4,37.7,30.23,WNW,297,1.0,15.0,69,0.00,,,0.06,Wunderground v.1.15,2013-04-12 03:16:00,
2013-04-11 20:21:00,47.1,37.8,30.23,West,279,1.0,15.0,70,0.00,,,0.06,Wunderground v.1.15,2013-04-12 03:21:00,
2013-04-11 20:26:00,46.9,37.3,30.23,NW,312,2.0,15.0,69,0.00,,,0.06,Wunderground v.1.15,2013-04-12 03:26:00,
2013-04-11 20:32:00,46.6,37.3,30.23,WSW,244,2.0,15.0,70,0.00,,,0.06,Wunderground v.1.15,2013-04-12 03:32:00,
2013-04-11 20:38:00,46.4,37.5,30.23,WNW,302,1.0,15.0,71,0.00,,,0.06,Wunderground v.1.15,2013-04-12 03:38:00,
2013-04-11 20:44:00,46.3,37.4,30.24,NW,307,2.0,15.0,71,0.00,,,0.06,Wunderground v.1.15,2013-04-12 03:44:00,
2013-04-11 20:49:00,46.1,37.2,30.24,NW,307,2.0,15.0,71,0.00,,,0.06,Wunderground v.1.15,2013-04-12 03:49:00,
2013-04-11 20:55:00,45.9,37.4,30.24,NW,307,0.0,15.0,72,0.00,,,0.06,Wunderground v.1.15,2013-04-12 03:55:00,
2013-04-11 21:00:00,45.5,37.3,30.24,NW,304,0.0,15.0,73,0.00,,,0.06,Wunderground v.1.15,2013-04-12 04:00:00,
2013-04-11 21:01:00,45.4,38.3,30.24,NW,304,0.0,15.0,76,0.00,,,0.06,Wunderground v.1.15,2013-04-12 04:01:00,
2013-04-11 21:03:00,45.3,37.2,30.24,NW,304,0.0,15.0,73,0.00,,,0.06,Wunderground v.1.15,2013-04-12 04:03:00,
2013-04-11 21:04:00,45.2,37.1,30.24,NW,304,0.0,15.0,73,0.00,,,0.06,Wunderground v.1.15,2013-04-12 04:04:00,
2013-04-11 21:10:00,44.9,37.1,30.24,NW,304,0.0,15.0,74,0.00,,,0.06,Wunderground v.1.15,2013-04-12 04:10:00,
2013-04-11 21:16:00,44.4,37.0,30.24,NW,304,0.0,15.0,75,0.00,,,0.06,Wunderground v.1.15,2013-04-12 04:16:00,
2013-04-11 21:21:00,44.1,37.0,30.24,WNW,303,0.0,15.0,76,0.00,,,0.06,Wunderground v.1.15,2013-04-12 04:21:00,
2013-04-11 21:27:00,43.8,37.4,30.24,WNW,286,1.0,15.0,78,0.00,,,0.06,Wunderground v.1.15,2013-04-12 04:27:00,
2013-04-11 21:33:00,43.7,37.3,30.24,WNW,292,1.0,15.0,78,0.00,,,0.06,Wunderground v.1.15,2013-04-12 04:33:00,
2013-04-11 21:38:00,43.5,37.1,30.24,WNW,286,1.0,15.0,78,0.00,,,0.06,Wunderground v.1.15,2013-04-12 04:38:00,
2013-04-11 21:44:00,43.3,36.9,30.24,WNW,286,0.0,15.0,78,0.00,,,0.06,Wunderground v.1.15,2013-04-12 04:44:00,
2013-04-11 21:50:00,43.1,37.0,30.24,West,269,1.0,1.0,79,0.00,,,0.06,Wunderground v.1.15,2013-04-12 04:50:00,
2013-04-11 21:56:00,42.9,37.2,30.24,West,261,1.0,15.0,80,0.00,,,0.06,Wunderground v.1.15,2013-04-12 04:56:00,
2013-04-11 22:01:00,42.7,37.0,30.24,WSW,255,1.0,15.0,80,0.00,,,0.06,Wunderground v.1.15,2013-04-12 05:01:00,
2013-04-11 22:06:00,42.6,36.9,30.24,WSW,250,1.0,15.0,80,0.00,,,0.06,Wunderground v.1.15,2013-04-12 05:06:00,
2013-04-11 22:11:00,42.4,37.0,30.24,West,271,2.0,15.0,81,0.00,,,0.06,Wunderground v.1.15,2013-04-12 05:11:00,
2013-04-11 22:17:00,42.3,36.6,30.24,WNW,287,1.0,15.0,80,0.00,,,0.06,Wunderground v.1.15,2013-04-12 05:17:00,
2013-04-11 22:23:00,42.3,36.6,30.24,WNW,287,0.0,15.0,80,0.00,,,0.06,Wunderground v.1.15,2013-04-12 05:23:00,
2013-04-11 22:29:00,42.2,36.5,30.25,WNW,287,0.0,15.0,80,0.00,,,0.06,Wunderground v.1.15,2013-04-12 05:29:00,
2013-04-11 22:35:00,41.9,36.5,30.24,WNW,287,0.0,15.0,81,0.00,,,0.06,Wunderground v.1.15,2013-04-12 05:35:00,
2013-04-11 22:41:00,41.6,36.2,30.24,WNW,287,0.0,15.0,81,0.00,,,0.06,Wunderground v.1.15,2013-04-12 05:41:00,
2013-04-11 22:46:00,41.2,36.1,30.24,WNW,287,0.0,15.0,82,0.00,,,0.06,Wunderground v.1.15,2013-04-12 05:46:00,
2013-04-11 22:52:00,40.8,35.7,30.23,WNW,287,0.0,15.0,82,0.00,,,0.06,Wunderground v.1.15,2013-04-12 05:52:00,
2013-04-11 22:58:00,40.5,36.0,30.23,WNW,287,0.0,15.0,84,0.00,,,0.06,Wunderground v.1.15,2013-04-12 05:58:00,